Back to catalog

CZ-6A DEB

AlivePO
NORAD 60769·DEBRIS·🇨🇳 China

Launched Aug 6, 2024 from Taiyuan Satellite Launch Center

Loading…

Next Passes (next 24 hours)

TLE

FreshSource: Space-Track

Epoch: Sep 14, 2026, 11:28 UTC

1 60769U 24140EU  26257.47836467  .00001220  00000-0  38569-3 0  9995
2 60769  89.0524 267.3309 0046708 305.5637  54.1213 14.39045237107790

Track CZ-6A DEB in real time with AllMySat

Download on the App Store